Location: Crocus Hill
(18.2167°N, 63.0667°W)
Time: 04:10:53
(UTC+00:00)

ADEOS Rocket - Pass Details

Date: 26 January 2020
Orbit: 859 x 1306 km, 98.7° (Epoch: 16 February)

Event Time Altitude Azimuth Distance (km) Brightness Sun altitude
Rises 10:11:18 0° 153° (SSE) 3,467 6.6 -8.8°
Reaches altitude 10° 10:13:47 10° 147° (SSE) 2,505 6.0 -8.2°
Maximum altitude 10:18:59 45° 75° (ENE) 1,149 3.9 -7.1°
Drops below altitude 10° 10:24:13 10° 4° (N) 2,516 5.0 -5.9°
Sets 10:26:42 0° 358° (N) 3,484 5.7 -5.3°
